Regional Weather Roundup
Issued by NWS

Home | Current Version | Previous Version | Graphics & Text | Print | Product List | Glossary On
Versions: 1 2 3 4 5 6 7 8 9 10 11 12 13 14 15 16 17 18 19 20 21 22 23 24 25 26 27 28 29 30 31 32 33 34 35 36 37 38 39 40 41 42 43 44 45 46 47 48 49 50
000
ASUS45 KTFX 212110
RWRMT
MONTANA REGIONAL WEATHER ROUNDUP
NATIONAL WEATHER SERVICE GREAT FALLS MT
300 PM MDT MON AUG 21 2017

NOTE: "FAIR" INDICATES FEW OR NO CLOUDS BELOW 12000 FEET WITH NO
SIGNIFICANT WEATHER AND/OR OBSTRUCTIONS TO VISIBILITY.

MTZ001>007-043-212200-
WEST OF THE DIVIDE

CITY           SKY/WX    TMP DP  RH WIND       PRES   REMARKS
KALISPELL      SUNNY     77  42  28 VRB5      30.16F
MISSOULA       SUNNY     79  34  19 VRB3      30.16F
BUTTE          SUNNY     74  26  16 VRB5      30.26F
MULLAN PASS    SUNNY     71  37  28 MISG      30.31F
ANACONDA         N/A     73  37  27 N6        30.23F
DEER LODGE       N/A     73  37  27 NE7       30.24F
EUREKA           N/A     77  39  25 MISG      30.15F
HAMILTON         N/A     75  41  29 N3        30.19F
LIBBY            N/A     81  39  22 N6        30.13F
PLAINS           N/A     83  40  21 CALM      30.14F
RONAN            N/A     77  42  28 W7        30.21F
$$

MTZ008-052>055-212200-
SOUTHWEST MONTANA

CITY           SKY/WX    TMP DP  RH WIND       PRES   REMARKS
BOZEMAN        SUNNY     77  33  20 VRB3      30.20F
DILLON         SUNNY     75  38  26 N6        30.22F
W YELLOWSTONE  SUNNY     73  30  20 CALM      30.29F
THREE FORKS      N/A     78  35  21 CALM      30.17F
TWIN BRIDGES     N/A     76  36  23 CALM      30.18F
$$

MTZ009-010-012-014-046-048-049-054-212200-
EAST SLOPES AND CENTRAL MONTANA

CITY           SKY/WX    TMP DP  RH WIND       PRES   REMARKS
CUT BANK       SUNNY     73  33  23 MISG      30.19F
GREAT FALLS    SUNNY     76  34  21 VRB5      30.18F
MALMSTROM AFB  SUNNY     75  35  24 SW3       30.18F
HELENA         SUNNY     80  37  21 NE6       30.16F
AUGUSTA          N/A     72  36  26 E5        30.20F
BOWMANS CRNR     N/A     74  35  23 N7        30.17F
CHOTEAU          N/A     75  36  23 N7G15     30.20F
CONRAD           N/A     74  41  30 E2        30.19F
FAIRFIELD        N/A     74  34  23 E5        30.18F
POWER            N/A     74  33  22 NE5       30.18F
RAYNESFORD       N/A     75  35  23 NW9       30.19F
ULM              N/A     75  35  22 SE5       30.17F
$$

MTZ011-013-016-021-045-047-050-051-212200-
NORTH CENTRAL MONTANA

CITY           SKY/WX    TMP DP  RH WIND       PRES   REMARKS
HAVRE          SUNNY     76  36  23 E8        30.15F
LEWISTOWN      SUNNY     75  34  22 VRB6      30.20F
N BAR RANCH    PTSUNNY   73  30  20 S9        30.23S
CHINOOK          N/A     75  37  25 SE5       30.16F
DENTON           N/A     75  34  22 N8        30.15F
GEYSER           N/A     76  35  22 NE10      30.18F
GRASS RANGE      N/A     74  31  20 CALM      30.16F
JUDITH GAP       N/A     73  36  25 N9G21     30.21S
WINIFRED         N/A     74  32  21 NE12G21   30.18F
$$

MTZ017>020-022>027-061-062-212200-
NORTHEAST MONTANA

CITY           SKY/WX    TMP DP  RH WIND       PRES   REMARKS
GLASGOW        MOSUNNY   75  35  23 NW10      30.14F
JORDAN           N/A     76  33  21 VRB7G17   30.15F
SIDNEY         SUNNY     75  39  27 NW15G25   30.11F
WOLF POINT     SUNNY     78  34  20 NW12G23   30.12F
MALTA          SUNNY     75  36  23 VRB5G13   30.16F
PLENTYWOOD       N/A     72  34  25 NW18G26   30.10F
SCOBEY           N/A     72  35  25 W10       30.12F
$$

MTZ028>42-056>058-212200-
SOUTHCENTRAL AND SOUTHEAST MONTANA

CITY           SKY/WX    TMP DP  RH WIND       PRES   REMARKS
BAKER          SUNNY     78  34  20 NW13G24   30.15S
BILLINGS       SUNNY     78  29  16 NE7       30.17F
LIVINGSTON     SUNNY     78  32  18 VRB3      30.19F
MILES CITY     SUNNY     80  31  16 VRB5      30.13F
BIG TIMBER     SUNNY     75  30  19 VRB7      30.22F
EKALAKA          N/A     74  34  23 N5        30.13S
HARLOWTON        N/A     76  32  19 MISG      30.18F
LAUREL           N/A     77  34  21 CALM      30.15F
$$

REGIONAL REPORTS...DAKOTAS

CITY           SKY/WX    TMP DP  RH WIND       PRES   REMARKS
WILLISTON      SUNNY     76  39  26 NW16G24   30.10S
MINOT          SUNNY     76  40  27 NW25G31   30.00S
DICKINSON      SUNNY     74  41  30 NW22      30.08S
BEACH            N/A     73  37  27 NW16G24   30.16F
CROSBY           N/A     73  32  21 NW18G28   30.08S
TIOGA            N/A     72  36  26 NW22      30.10S
WATFORD CITY     N/A     75  39  27 NW20G26   30.09S
BISMARCK       SUNNY     77  47  34 N20G28    30.00R
GRAND FORKS    CLOUDY    75  57  53 NW7       29.87F
FARGO          CLOUDY    74  61  63 NW8       29.86F
BUFFALO SD       N/A     79  37  22 N16G28    30.06S
RAPID CITY     CLOUDY    79  43  27 N20G25    30.12F
$$

REGIONAL REPORTS...WYOMING/IDAHO/WASHINGTON

CITY           SKY/WX    TMP DP  RH WIND       PRES   REMARKS
GILLETTE       SUNNY     78  31  17 N7        30.18F
SHERIDAN       SUNNY     79  30  16 N6        30.18F
BUFFALO WY     SUNNY     76  30  18 CALM      30.23F
CODY           SUNNY     73  35  25 NE7       30.22F
YELLOWSTONE LA   N/A     67  41  38 E3        30.37F
IDAHO FALLS    SUNNY     79  36  21 SW6       30.19F
SALMON         SUNNY     78  34  20 NW5       30.16F
BOISE          SUNNY     83  39  21 NW8       30.10F
SPOKANE        MOSUNNY   81  41  24 VRB3      30.14F
$$

REGIONAL REPORTS...ALBERTA

CITY           SKY/WX    TMP DP  RH WIND       PRES   REMARKS
EDMONTON       PTSUNNY   70  46  43 SW8       30.08F
CALGARY        PTSUNNY   70  39  32 S5        30.15F
LETHBRIDGE     PTSUNNY   73  37  27 S5        30.15
MEDICINE HAT   PTSUNNY   72  37  28 CALM      30.16F
$$

REGIONAL REPORTS...SASKATCHEWAN

CITY           SKY/WX    TMP DP  RH WIND       PRES   REMARKS
SWIFT CURRENT  SUNNY     68  32  26 N8G18     30.16F
REGINA         MOSUNNY   72  32  23 NW18      30.09S
SASKATOON      PTSUNNY   72  37  28 NW20G26   30.10S
$$



USA.gov is the U.S. government's official web portal to all federal, state and local government web resources and services.